DateTimeUTC,F1_A11,F1_S11,BsB_S11,BsG_S11,BsR_S11,BbsB_S11,BbsG_S11,BbsR_S11,BaB_A11,BaG_A11,BaR_A11,Tu_S11,T_S11,Uu_S11,U_S11,P_S11,T1_A11
2021-11-15T03:00:00Z,00000200,21000000,,,,,,,0000.45,0000.46,0000.18,20.4,27.2,,00.0,0625.2,31.2
2021-11-15T03:01:00Z,00000200,21000000,,,,,,,-000.45,-000.27,-000.42,20.4,27.2,,00.0,0625.2,31.2
2021-11-15T03:02:00Z,00000200,21000000,,,,,,,0000.09,-000.25,0000.41,20.4,27.3,,00.0,0625.2,31.2
2021-11-15T03:03:00Z,00000200,61000000,,,,,,,-000.60,-000.09,-000.41,20.5,27.3,,00.0,0625.2,31.2
2021-11-15T03:04:00Z,00000200,41000000,0000.27,0000.00,0000.34,0000.49,-000.19,-000.13,0000.14,0000.01,-000.28,20.8,27.2,,00.0,0626.2,31.2
2021-11-15T03:05:00Z,00000200,01000000,0000.02,0000.05,0000.08,-000.00,-000.13,-000.01,0000.35,-000.10,0000.07,20.8,27.2,,00.0,0626.3,31.2
2021-11-15T03:06:00Z,00000200,01000000,-000.24,-000.12,-000.35,0000.05,0000.25,-000.11,-000.01,0000.03,-000.26,20.8,27.2,,00.0,0626.3,31.2
2021-11-15T03:07:00Z,00000200,01000000,-000.62,0000.10,-000.07,-000.31,-000.05,0000.08,0000.01,0000.16,0000.30,20.9,27.2,,00.0,0626.4,31.2
2021-11-15T03:08:00Z,00000200,01000000,-000.46,-000.15,-000.07,-000.58,0000.37,0000.09,0000.04,0000.14,0000.18,20.9,27.2,,00.0,0626.4,31.2
2021-11-15T03:09:00Z,00000200,01000000,-000.49,-000.05,0000.18,0000.40,-000.00,-000.20,-000.09,-000.10,-000.15,21.0,27.2,,00.0,0626.4,31.2
2021-11-15T03:10:00Z,00000200,01000000,-000.27,0000.16,-000.24,0000.04,0000.15,-000.15,-000.39,-000.12,0000.30,21.0,27.3,,00.0,0626.4,31.2
2021-11-15T03:11:00Z,00000200,01000000,0000.11,0000.26,-000.25,0000.22,0000.21,-000.50,0000.32,0000.08,0000.00,20.9,27.3,,00.0,0626.4,31.2
2021-11-15T03:12:00Z,00000200,01000000,-000.06,-000.28,0000.21,0000.18,-000.01,-000.06,0000.19,0000.04,-000.10,20.9,27.3,,00.0,0626.4,31.2
2021-11-15T03:13:00Z,00000200,01000000,-000.02,-000.26,-000.03,-000.06,0000.12,0000.09,-000.17,-000.43,0000.04,20.8,27.2,,00.0,0626.4,31.1
2021-11-15T03:14:00Z,00000200,01000000,0000.08,0000.18,-000.05,0000.53,-000.12,-000.09,0000.13,0000.55,-000.05,20.7,27.2,,00.0,0626.4,31.1
2021-11-15T03:15:00Z,00000200,01000000,0000.08,0000.13,-000.26,0000.19,-000.17,-000.11,-000.21,-000.49,0000.43,20.6,27.1,,00.0,0626.4,31.1
2021-11-15T03:16:00Z,00000200,01000000,-000.43,0000.02,-000.21,0000.12,0000.09,-000.03,-000.02,0000.33,-000.73,20.5,27.1,,00.0,0626.4,31.1
2021-11-15T03:17:00Z,00000200,01000000,0000.31,0000.16,-000.08,-000.26,-000.20,-000.05,0000.29,0000.09,0000.15,20.4,27.0,,00.0,0626.3,31.1
2021-11-15T03:18:00Z,00000200,01000000,-000.29,-000.22,0000.07,-000.36,0000.36,0000.08,0000.11,0000.04,0000.00,20.3,27.0,,00.0,0626.3,31.1
2021-11-15T03:19:00Z,00000200,01000000,-000.44,-000.26,0000.35,-000.60,0000.11,0000.08,-000.38,-000.40,-000.16,20.3,26.9,,00.0,0626.3,31.1
2021-11-15T03:20:00Z,00000200,01000000,0000.42,-000.10,-000.10,-000.10,-000.11,0000.38,0000.15,0000.38,0000.23,20.2,26.9,,00.0,0626.3,31.1
2021-11-15T03:21:00Z,00000200,01000000,-000.39,-000.11,-000.30,0000.46,0000.14,-000.15,0000.36,0000.06,-000.24,20.2,26.9,,00.0,0626.4,31.1
2021-11-15T03:22:00Z,00000200,01000000,0000.15,-000.02,0000.14,0000.15,-000.04,-000.01,-000.11,0000.10,0000.38,20.2,26.9,,00.0,0626.4,31.1
2021-11-15T03:23:00Z,00000200,01000000,-000.28,0000.03,-000.01,-000.29,0000.08,-000.29,-000.06,-000.62,-000.06,20.3,26.9,,00.0,0626.4,31.1
2021-11-15T03:24:00Z,00000200,01000000,-000.26,0000.07,-000.07,0000.21,0000.13,0000.00,-000.37,0000.42,0000.06,20.4,26.9,,00.0,0626.4,31.1
2021-11-15T03:25:00Z,00000200,01000000,-000.75,0000.31,-000.05,0000.06,0000.17,-000.12,0000.47,-000.21,-000.29,20.4,26.9,,00.0,0626.4,31.1
2021-11-15T03:26:00Z,00000200,01000000,-000.05,0000.20,-000.36,0000.31,-000.07,-000.29,-000.12,0000.05,0000.11,20.4,26.9,,00.0,0626.4,31.2
2021-11-15T03:27:00Z,00000200,01000000,-000.69,0000.03,-000.51,-000.35,-000.19,-000.43,0000.10,0000.06,0000.23,20.5,27.0,,00.0,0626.4,31.2
2021-11-15T03:28:00Z,00000200,01000000,0000.29,0000.28,-000.11,0000.47,0000.22,-000.24,0000.02,0000.30,0000.37,20.6,27.0,,00.0,0626.4,31.2
2021-11-15T03:29:00Z,00000200,01000000,-000.77,0000.18,-000.06,0000.54,0000.08,0000.18,0000.21,0000.12,-000.06,20.6,27.0,,00.0,0626.4,31.2
2021-11-15T03:30:00Z,00000200,01000000,-000.30,0000.11,-000.27,0000.64,-000.10,-000.16,-000.08,-000.29,-000.29,20.7,27.1,,00.0,0626.4,31.2
2021-11-15T03:31:00Z,00000200,01000000,0000.08,-000.24,0000.24,0000.18,-000.03,0000.34,0000.20,0000.38,0000.10,20.7,27.1,,00.0,0626.4,31.2
2021-11-15T03:32:00Z,00000200,01000000,-000.28,0000.08,-000.23,0000.32,0000.03,0000.02,0000.13,-000.51,-000.05,20.8,27.1,,00.0,0626.4,31.2
2021-11-15T03:33:00Z,00000200,01000000,-000.54,0000.05,-000.32,0000.14,0000.16,0000.05,0000.04,0000.58,0000.51,20.8,27.1,,00.0,0626.4,31.2
2021-11-15T03:34:00Z,00000200,01000000,-000.16,0000.10,0000.15,-000.28,0000.32,0000.15,-000.09,-000.07,-000.35,20.9,27.2,,00.0,0626.5,31.2
2021-11-15T03:35:00Z,00000200,01000000,-000.02,0000.17,0000.00,-000.04,-000.30,-000.17,0000.18,-000.06,-000.05,20.9,27.2,,00.0,0626.5,31.2
2021-11-15T03:36:00Z,00000200,01000000,-000.35,-000.03,0000.03,0000.71,-000.03,-000.39,-000.02,0000.65,0000.32,21.0,27.2,,00.0,0626.5,31.2
2021-11-15T03:37:00Z,00000200,01000000,-000.94,0000.30,-000.25,0000.42,-000.09,-000.16,-000.07,-000.32,-000.09,21.0,27.2,,00.0,0626.5,31.2
2021-11-15T03:38:00Z,00000200,01000000,0000.59,-000.18,-000.11,0000.16,0000.24,-000.24,-000.02,-000.00,0000.04,21.1,27.3,,00.0,0626.5,31.2
2021-11-15T03:39:00Z,00000200,01000000,-000.46,0000.25,-000.12,0000.47,-000.07,-000.07,-000.34,0000.14,0000.06,21.1,27.3,,00.0,0626.5,31.2
2021-11-15T03:40:00Z,00000200,01000000,0000.23,0000.15,-000.11,0000.28,-000.06,-000.06,0000.51,-000.30,-000.13,21.1,27.3,,00.0,0626.6,31.2
2021-11-15T03:41:00Z,00000200,01000000,-000.18,0000.04,-000.30,0000.89,0000.27,-000.20,-000.30,0000.18,0000.00,21.2,27.3,,00.0,0626.6,31.2
2021-11-15T03:42:00Z,00000200,01000000,-000.38,0000.00,-000.06,-000.12,0000.19,-000.37,0000.28,-000.20,0000.36,21.2,27.4,,00.0,0626.6,31.2
2021-11-15T03:43:00Z,00000200,01000000,-000.14,0000.04,-000.36,-000.30,0000.24,-000.12,-000.08,0000.04,-000.19,21.2,27.4,,00.0,0626.6,31.3
2021-11-15T03:44:00Z,00000200,01000000,-000.07,0000.04,0000.15,0000.16,0000.17,-000.13,-000.09,-000.27,-000.16,21.3,27.4,,00.0,0626.5,31.3
2021-11-15T03:45:00Z,00000200,01000000,-000.81,0000.07,0000.26,-000.26,-000.06,-000.11,0000.41,0000.69,0000.11,21.2,27.5,,00.0,0626.5,31.2
2021-11-15T03:46:00Z,00000200,01000000,0000.15,-000.31,-000.06,-000.14,0000.32,-000.08,-000.11,-000.01,0000.14,21.1,27.4,,00.0,0626.5,31.2
2021-11-15T03:47:00Z,00000200,01000000,0000.31,0000.25,-000.28,-000.32,0000.04,-000.04,0000.14,-000.33,-000.25,21.1,27.4,,00.0,0626.5,31.2
2021-11-15T03:48:00Z,00000200,01000000,-000.65,0000.10,0000.30,0000.07,0000.15,-000.07,0000.08,0000.32,0000.44,21.0,27.3,,00.0,0626.5,31.2
2021-11-15T03:49:00Z,00000200,01000000,-000.56,0000.12,0000.14,-000.59,-000.15,0000.18,-000.06,-000.15,-000.16,20.9,27.3,,00.0,0626.5,31.1
2021-11-15T03:50:00Z,00000200,01000000,-000.29,0000.04,0000.08,-000.18,0000.30,0000.12,-000.11,-000.12,0000.33,20.8,27.2,,00.0,0626.5,31.2
2021-11-15T03:51:00Z,00000200,01000000,-000.47,0000.10,-000.13,0000.40,0000.11,-000.19,0000.21,0000.36,-000.09,20.8,27.2,,00.0,0626.5,31.2
2021-11-15T03:52:00Z,00000200,01000000,-000.22,-000.05,0000.20,-000.20,-000.09,0000.50,0000.18,0000.36,0000.02,20.8,27.2,,00.0,0626.5,31.1
2021-11-15T03:53:00Z,00000200,01000000,-000.13,-000.15,-000.15,0000.22,0000.14,-000.02,0000.07,-000.43,-000.28,20.8,27.2,,00.0,0626.5,31.1
2021-11-15T03:54:00Z,00000200,01000000,0000.28,0000.16,-000.11,0000.18,0000.01,0000.30,-000.01,0000.21,0000.10,20.9,27.3,,00.0,0626.6,31.2
2021-11-15T03:55:00Z,00000200,01000000,-000.17,-000.26,0000.06,0000.50,0000.07,-000.08,0000.20,0000.09,0000.16,20.9,27.3,,00.0,0626.6,31.2
2021-11-15T03:56:00Z,00000200,01000000,-000.19,0000.00,0000.16,-000.27,-000.05,-000.15,0000.05,0000.31,0000.26,21.0,27.3,,00.0,0626.6,31.2
2021-11-15T03:57:00Z,00000200,41000000,,,,,,,0000.19,0000.12,-000.01,21.0,27.3,,00.0,0626.6,31.2
2021-11-15T03:58:00Z,00000200,61000000,,,,,,,-000.26,-000.07,0000.21,20.7,27.4,,00.0,0625.7,31.2
2021-11-15T03:59:00Z,00000200,21000000,,,,,,,0000.06,-000.03,0000.23,20.7,27.5,,00.0,0625.7,31.2
